This is the latest recevied weather packets stored in our database for station/object W7BL. If no packets are shown the sender has not sent any weather packets the latest 10 day(s).
| Time | Temp. | Humidity | Pressure | Rain* | Wind** | Luminosity | Snow |
|---|---|---|---|---|---|---|---|
| 1777855592 | 25° C | 25% | - | 0 mm | - | - | - |
| 1777855289 | 25° C | 23% | - | 0 mm | - | - | - |
| 1777854985 | 25° C | 23% | - | 0 mm | - | - | - |
| 1777854681 | 25° C | 21% | - | 0 mm | - | - | - |
| 1777854378 | 25.56° C | 21% | - | 0 mm | - | - | - |
| 1777854076 | 25° C | 22% | - | 0 mm | - | - | - |
| 1777853774 | 25° C | 22% | - | 0 mm | - | - | - |
| 1777853469 | 25° C | 21% | - | 0 mm | - | - | - |
| 1777853167 | 25.56° C | 23% | - | 0 mm | - | - | - |
| 1777852864 | 25.56° C | 22% | - | 0 mm | - | - | - |
| 1777852563 | 25.56° C | 22% | - | 0 mm | - | - | - |
| 1777852259 | 25.56° C | 22% | - | 0 mm | - | - | - |
| 1777851957 | 26.11° C | 22% | - | 0 mm | - | - | - |
| 1777851655 | 25.56° C | 22% | - | 0 mm | - | - | - |
| 1777851351 | 25.56° C | 21% | - | 0 mm | - | - | - |
| 1777851047 | 25.56° C | 21% | - | 0 mm | - | - | - |
| 1777850744 | 26.11° C | 21% | - | 0 mm | - | - | - |
| 1777850441 | 25.56° C | 19% | - | 0 mm | - | - | - |
| 1777850139 | 26.11° C | 20% | - | 0 mm | - | - | - |
| 1777849836 | 26.11° C | 20% | - | 0 mm | - | - | - |
| 1777849532 | 26.11° C | 20% | - | 0 mm | - | - | - |
| 1777849230 | 26.67° C | 18% | - | 0 mm | - | - | - |
| 1777848926 | 26.67° C | 21% | - | 0 mm | - | - | - |
| 1777848621 | 26.67° C | 19% | - | 0 mm | - | - | - |
| 1777848319 | 27.22° C | 20% | - | 0 mm | - | - | - |
* Rain latest hour (hover to see other rain measurements)
** Current wind speed in m/s (hover to see current wind gust speed)